Location: Maignaut
(43.8886°N, 0.4051°E)
Time: 05:23:25
(UTC+00:00)

Cosmos 841 Rocket - Pass Details

Date: 27 February 2020
Orbit: 746 x 773 km, 74.0° (Epoch: 28 March)

Event Time Altitude Azimuth Distance (km) Brightness Sun altitude
Rises 18:58:45 0° 179° (S) 3,176 6.7 -14.3°
Reaches altitude 10° 19:01:11 10° 172° (S) 2,259 5.8 -14.8°
Maximum altitude 19:05:58 42° 103° (ESE) 1,072 3.8 -15.6°
Drops below altitude 10° 19:10:49 10° 34° (NE) 2,287 5.7 -16.5°
Sets 19:13:18 0° 27° (NNE) 3,220 6.5 -16.9°
